{"data":{"norad_id":53684,"intl_designator":"2022-105AN","name":"STARLINK-4624","alt_names":[],"object_type":"PAYLOAD","status":"ACTIVE","operator":null,"country":"US","launch_date":"2022-08-31","launch_site_code":"AFWTR","launch_vehicle":null,"mission":null,"orbit_class":"UNKNOWN","rcs_meters":null,"size_class":null,"mass_kg":null,"dimensions":null,"purposes":["comms"],"wikipedia_slug":null,"has_3d_model":false,"image_url":null,"decayed_at":null,"tle_current":{"epoch":"2026-05-25T02:45:00.764352Z","epoch_age_seconds":65055,"freshness":"FRESH","line1":"1 53684U 22105AN  26145.11459218  .00013480  00000+0  93833-3 0  9999","line2":"2 53684  97.4513  25.0607 0002953  86.0944 274.0620 15.05577981204709","mean_motion":15.05577981,"eccentricity":0.0002953,"inclination_deg":97.4513,"raan_deg":25.0607,"arg_perigee_deg":86.0944,"mean_anomaly_deg":274.062,"bstar":0.00093833,"rev_number":20470,"period_min":95.644331822889,"perigee_km":547.68627424998,"apogee_km":551.77787372508,"semimajor_km":6927.8690739875,"source":"CELESTRAK","updated_at":"2026-05-25T13:38:17.528463Z"}}}